COSMOS 2024 (ETALON 2)

Satellite information

Favourite Embed

Satellite Type and Status

PAYLOADIN ORBIT

Key statistics

Satellite COSMOS 2024 (ETALON 2) at a glance.

Uptime

13345

Days in orbit

Revolutions

≈ 2.1

Per day

Orbit

MEO

Medium Earth Orbit

Inclination

65.1

Latest

Satellite identification and parameters

Extended collection of information and parameters for COSMOS 2024 (ETALON 2).

Object identification

Identified? True

Debris? False

Object name: COSMOS 2024 (ETALON 2)

International designator: 1989-039C

Object number (NORAD): 20026

Object ID (CCSDS): 20026

Country: COMMONWEALTH OF INDEPENDENT STATES (CIS)

Current information (Y/N): Y

RCS size: LARGE

Orbital parameters

Period: 675.408 minutes

Inclination: 65.0512 deg

SMA: 25499.849 km

Apoapsis: 19173.874 km

Periapsis: 19069.553 km

RAAN: 316.9946 deg

Eccentricy: 0.00204553

Argument of periapsis: 214.1273 deg

Mean anomaly: 318.4824 deg

Mean motion: 2.13204494 rev/day

Mean motion (dot): -0.00000054 rev/day2

B* drag term: 0.0 1/REarth

Two-line elements (TLE)

Creation date: Dec. 11, 2025, 7:14 p.m.

Reference frame: TEME

Reference center: EARTH

Epoch: Dec. 11, 2025, 3:18 p.m. UTC

TLE line 0: 0 COSMOS 2024 (ETALON 2)

TLE line 1: 1 20026U 89039C 25345.63809078 -.00000054 00000-0 00000-0 0 9999

TLE line 2: 2 20026 65.0512 316.9946 0020455 214.1273 318.4824 2.13204494284503

Live tracking on map

Real-time ground track for satellite COSMOS 2024 (ETALON 2).

In-orbit conjunctions

A list of the most updated potential collisions computed for object COSMOS 2024 (ETALON 2).

Target Orbit TCA Probability of collision Miss distance Type
COSMOS 1948 (GLONASS) MEO 2025-05-18 12:00:08 TBA 4412.0 (m) PAYLOAD
FREGAT R/B MEO 2025-02-11 02:42:05 TBA 4370.0 (m) ROCKET BODY

Associated space launch

GLONASS navigation satellites

COSMOS 2024 (ETALON 2) was lifted into orbit during the mission ‘Proton | Uragan 34 & 35’, on board a Proton space rocket.

The launch took place on May 31, 1989, 8:31 a.m. from 200/40.

For more information about the launch, click the button.

Launch to space Proton | Uragan 34 & 35
Proton | Uragan 34 & 35

Agency: N/A

Status: Launch Successful

Launch date: May 31, 1989, 8:31 a.m. UTC

Rocket: Proton

Launch pad: 200/40

Location: Baikonur Cosmodrome, Republic of Kazakhstan

...

Latest news about this satellite

There are no fresh news available about this satellite. Check back as we update our databases every day.


Newsletter sign-up

Weekly statistics, charts and insights to help you stay on top of the space industry.